User: anonymous   Login
Location: Chevoux
(46.3801°N, 4.9476°E)
Time: 16:24:44
(UTC+00:00)
Language:

CZ-4 R/B - Orbit

View from above orbital plane
View from above orbital plane
View from above satellite
View from above satellite

Ground track
Ground track

The orbit data is extracted from the following two-line orbital elements,

1 29507U 06046C   21112.62052450  .00001219  00000-0  98832-4 0  9997
2 29507  97.7289 138.8001 0046793 202.9616 156.9516 15.00786076791733
Epoch (UTC): 22 April 2021 14:53:33
Eccentricity: 0.0046793
inclination: 97.7289°
perigee height: 532 km
apogee height: 597 km
right ascension of ascending node: 138.8001°
argument of perigee: 202.9616°
revolutions per day: 15.00786076
mean anomaly at epoch: 156.9516°
orbit number at epoch: 79173

The dashed part of the orbit path shows where the satellite is in the earth's shadow,  

DLR